OAO 3 (COPERNICUS)

Last updated on Thu Oct 30 2025 00:02:14 GMT+0000 (Coordinated Universal Time)

1 06153U 72065A 25302.51391317 .00000583 00000+0 12433-3 0 9998 2 06153 35.0067 324.5921 0006589 172.3908 345.3216 14.59847546827017
UTC large
Height (km)
Speed (km/s)
/
Latitude / Longitude
Inclination (degrees)
Orbital Period (minutes)
Azimuth
Elevation
Range (km)
Doppler Factor

Next 0 passes for location: London (51.5072 / 0.1276)

Sorry there are no passes over London.